Overview Statistics Trail Chart Weather Telemetry Raw packets
 

This is the latest recevied weather packets stored in our database for station/object KB1RMA-4. If no packets are shown the sender has not sent any weather packets the latest 10 day(s).

<< 23 24 25 26 27 28 29 >>
Time Temp. Humidity Pressure Rain* Wind** Luminosity Snow
1788475330 19.44° C 90% 1012 hPa 0 mm - 21 W/m² -
1788475025 19.44° C 90% 1012.2 hPa 0 mm - 26 W/m² -
1788474724 20° C 89% 1012.4 hPa 0 mm - 27 W/m² -
1788474424 20° C 89% 1012.4 hPa 0 mm - 30 W/m² -
1788474123 20° C 89% 1012.4 hPa 0 mm - 32 W/m² -
1788473818 20° C 88% 1012.5 hPa 0 mm - 43 W/m² -
1788473516 20° C 88% 1012.4 hPa 0 mm - 47 W/m² -
1788473215 20.56° C 87% 1012.3 hPa 0 mm - 41 W/m² -
1788472910 20.56° C 87% 1012.5 hPa 0 mm - 52 W/m² -
1788472609 21.11° C 87% 1012.3 hPa 0 mm - 49 W/m² -
1788472304 21.11° C 87% 1012.3 hPa 0 mm - 53 W/m² -
1788472003 21.11° C 86% 1012.2 hPa 0 mm - 52 W/m² -
1788471698 21.67° C 85% 1012.2 hPa 0 mm - 51 W/m² -
1788471393 21.67° C 84% 1012.3 hPa 0 mm - 58 W/m² -
1788471089 21.67° C 83% 1012.5 hPa 0 mm - 57 W/m² -
1788470785 22.22° C 83% 1012.3 hPa 0 mm - 71 W/m² -
1788470480 21.67° C 83% 1012.1 hPa 0 mm - 62 W/m² -
1788470175 22.22° C 83% 1012.2 hPa 0 mm - 67 W/m² -
1788469872 22.22° C 83% 1012.1 hPa 0 mm - 86 W/m² -
1788469567 22.22° C 82% 1012.3 hPa 0 mm - 103 W/m² -
1788469263 21.67° C 83% 1012.1 hPa 0 mm - 170 W/m² -
1788468961 21.67° C 83% 1012.1 hPa 0 mm - 135 W/m² -
1788468661 22.22° C 82% 1012.4 hPa 0 mm - 129 W/m² -
1788468357 22.22° C 81% 1012.3 hPa 0 mm - 127 W/m² -
1788468052 22.22° C 82% 1012.2 hPa 0 mm - 271 W/m² -

* Rain latest hour (hover to see other rain measurements)
** Current wind speed in m/s (hover to see current wind gust speed)